Location: Unspecified
(0.0000°N, 0.0000°E)
Time: 09:09:32
(UTC+01:00)

GPS 2-12 Rocket1 - Visible Passes

Search period start: 08 February 2016 00:00
Search period end: 18 February 2016 00:00
Orbit: 588 x 655 km, 20.0° (Epoch: 08 February)

Date Brightness Start Highest point End Pass type
(mag) Time Alt. Az. Time Alt. Az. Time Alt. Az.
08 Feb 4.3 05:15:24 37° SSE 05:15:24 37° SSE 05:18:43 10° SE visible
09 Feb 4.4 05:31:01 27° SSW 05:31:01 27° SSW 05:34:54 10° SE visible
10 Feb 5.0 05:46:38 17° SSW 05:47:38 18° SSW 05:50:48 10° SSE visible
11 Feb 5.4 06:02:49 10° SW 06:04:30 12° SSW 06:06:12 10° S visible
17 Feb 5.2 19:54:15 10° N 19:55:30 11° NNE 19:56:45 10° NNE visible
